Year,Month,Day,Hour,Minute,Value (Times are PST for temperature in C)
2009,08,02,00,00,18.50
2009,08,02,00,01,18.50
2009,08,02,00,02,18.50
2009,08,02,00,03,18.50
2009,08,02,00,04,18.40
2009,08,02,00,05,18.40
2009,08,02,00,06,18.40
2009,08,02,00,07,18.40
2009,08,02,00,08,18.40
2009,08,02,00,09,18.40
2009,08,02,00,10,18.40
2009,08,02,00,11,18.40
2009,08,02,00,12,18.40
2009,08,02,00,13,18.40
2009,08,02,00,14,18.40
2009,08,02,00,15,18.40
2009,08,02,00,16,18.40
2009,08,02,00,17,18.30
2009,08,02,00,18,18.30
2009,08,02,00,19,18.30
2009,08,02,00,20,18.30
2009,08,02,00,21,18.30
2009,08,02,00,22,18.30
2009,08,02,00,23,18.30
2009,08,02,00,24,18.30
2009,08,02,00,25,18.30
2009,08,02,00,26,18.30
2009,08,02,00,27,18.30
2009,08,02,00,28,18.30
2009,08,02,00,29,18.30
2009,08,02,00,30,18.20
2009,08,02,00,31,18.20
2009,08,02,00,32,18.20
2009,08,02,00,33,18.20
2009,08,02,00,34,18.20
2009,08,02,00,35,18.20
2009,08,02,00,36,18.20
2009,08,02,00,37,18.30
2009,08,02,00,38,18.30
2009,08,02,00,39,18.30
2009,08,02,00,40,18.30
2009,08,02,00,41,18.30
2009,08,02,00,42,18.30
2009,08,02,00,43,18.20
2009,08,02,00,44,18.00
2009,08,02,00,45,17.80
2009,08,02,00,46,17.50
2009,08,02,00,47,17.40
2009,08,02,00,48,17.20
2009,08,02,00,49,17.10
2009,08,02,00,50,17.00
2009,08,02,00,51,16.90
2009,08,02,00,52,16.90
2009,08,02,00,53,16.90
2009,08,02,00,54,16.80
2009,08,02,00,55,16.80
2009,08,02,00,56,16.80
2009,08,02,00,57,16.80
2009,08,02,00,58,16.80
2009,08,02,00,59,16.80
2009,08,02,01,00,16.70
2009,08,02,01,01,16.70
2009,08,02,01,02,16.60
2009,08,02,01,03,16.50
2009,08,02,01,04,16.40
2009,08,02,01,05,16.30
2009,08,02,01,06,16.20
2009,08,02,01,07,16.10
2009,08,02,01,08,16.10
2009,08,02,01,09,16.10
2009,08,02,01,10,16.10
2009,08,02,01,11,16.10
2009,08,02,01,12,16.10
2009,08,02,01,13,16.10
2009,08,02,01,14,16.10
2009,08,02,01,15,16.10
2009,08,02,01,16,16.10
2009,08,02,01,17,16.10
2009,08,02,01,18,15.90
2009,08,02,01,19,15.90
2009,08,02,01,20,15.90
2009,08,02,01,21,15.90
2009,08,02,01,22,15.90
2009,08,02,01,23,15.90
2009,08,02,01,24,15.80
2009,08,02,01,25,15.80
2009,08,02,01,26,15.80
2009,08,02,01,27,15.70
2009,08,02,01,28,15.60
2009,08,02,01,29,15.40
2009,08,02,01,30,15.30
2009,08,02,01,31,15.20
2009,08,02,01,32,15.10
2009,08,02,01,33,15.00
2009,08,02,01,34,15.00
2009,08,02,01,35,14.90
2009,08,02,01,36,14.80
2009,08,02,01,37,14.70
2009,08,02,01,38,14.70
2009,08,02,01,39,14.70
2009,08,02,01,40,14.60
2009,08,02,01,41,14.60
2009,08,02,01,42,14.60
2009,08,02,01,43,14.60
2009,08,02,01,44,14.50
2009,08,02,01,45,14.50
2009,08,02,01,46,14.40
2009,08,02,01,47,14.40
2009,08,02,01,48,14.30
2009,08,02,01,49,14.20
2009,08,02,01,50,14.10
2009,08,02,01,51,14.00
2009,08,02,01,52,13.90
2009,08,02,01,53,13.80
2009,08,02,01,54,13.70
2009,08,02,01,55,13.70
2009,08,02,01,56,13.70
2009,08,02,01,57,13.60
2009,08,02,01,58,13.60
2009,08,02,01,59,13.60
2009,08,02,02,00,13.50
2009,08,02,02,01,13.50
2009,08,02,02,02,13.50
2009,08,02,02,03,13.50
2009,08,02,02,04,13.50
2009,08,02,02,05,13.50
2009,08,02,02,06,13.50
2009,08,02,02,07,13.60
2009,08,02,02,08,13.60
2009,08,02,02,09,13.60
2009,08,02,02,10,13.60
2009,08,02,02,11,13.60
2009,08,02,02,12,13.60
2009,08,02,02,13,13.60
2009,08,02,02,14,13.60
2009,08,02,02,15,13.60
2009,08,02,02,16,13.60
2009,08,02,02,17,13.60
2009,08,02,02,18,13.60
2009,08,02,02,19,13.60
2009,08,02,02,20,13.60
2009,08,02,02,21,13.70
2009,08,02,02,22,13.70
2009,08,02,02,23,13.70
2009,08,02,02,24,13.70
2009,08,02,02,25,13.70
2009,08,02,02,26,13.60
2009,08,02,02,27,13.60
2009,08,02,02,28,13.60
2009,08,02,02,29,13.60
2009,08,02,02,30,13.60
2009,08,02,02,31,13.60
2009,08,02,02,32,13.60
2009,08,02,02,33,13.60
2009,08,02,02,34,13.60
2009,08,02,02,35,13.70
2009,08,02,02,36,13.70
2009,08,02,02,37,13.70
2009,08,02,02,38,13.70
2009,08,02,02,39,13.70
2009,08,02,02,40,13.80
2009,08,02,02,41,13.80
2009,08,02,02,42,13.80
2009,08,02,02,43,13.90
2009,08,02,02,44,13.90
2009,08,02,02,45,13.90
2009,08,02,02,46,14.00
2009,08,02,02,47,14.00
2009,08,02,02,48,14.00
2009,08,02,02,49,14.00
2009,08,02,02,50,14.10
2009,08,02,02,51,14.10
2009,08,02,02,52,14.10
2009,08,02,02,53,14.10
2009,08,02,02,54,14.20
2009,08,02,02,55,14.20
2009,08,02,02,56,14.20
2009,08,02,02,57,14.20
2009,08,02,02,58,14.20
2009,08,02,02,59,14.20
2009,08,02,03,00,14.20
2009,08,02,03,01,14.20
2009,08,02,03,02,14.20
2009,08,02,03,03,14.30
2009,08,02,03,04,14.30
2009,08,02,03,05,14.40
2009,08,02,03,06,14.40
2009,08,02,03,07,14.30
2009,08,02,03,08,14.30
2009,08,02,03,09,14.30
2009,08,02,03,10,14.30
2009,08,02,03,11,14.20
2009,08,02,03,12,14.10
2009,08,02,03,13,14.00
2009,08,02,03,14,13.90
2009,08,02,03,15,13.90
2009,08,02,03,16,13.90
2009,08,02,03,17,13.80
2009,08,02,03,18,13.80
2009,08,02,03,19,13.80
2009,08,02,03,20,13.70
2009,08,02,03,21,13.70
2009,08,02,03,22,13.70
2009,08,02,03,23,13.70
2009,08,02,03,24,13.60
2009,08,02,03,25,13.60
2009,08,02,03,26,13.50
2009,08,02,03,27,13.40
2009,08,02,03,28,13.30
2009,08,02,03,29,13.30
2009,08,02,03,30,13.20
2009,08,02,03,31,13.10
2009,08,02,03,32,13.00
2009,08,02,03,33,13.00
2009,08,02,03,34,12.90
2009,08,02,03,35,12.90
2009,08,02,03,36,12.90
2009,08,02,03,37,12.80
2009,08,02,03,38,12.80
2009,08,02,03,39,12.70
2009,08,02,03,40,12.70
2009,08,02,03,41,12.70
2009,08,02,03,42,12.60
2009,08,02,03,43,12.60
2009,08,02,03,44,12.60
2009,08,02,03,45,12.60
2009,08,02,03,46,12.50
2009,08,02,03,47,12.50
2009,08,02,03,48,12.50
2009,08,02,03,49,12.50
2009,08,02,03,50,12.50
2009,08,02,03,51,12.50
2009,08,02,03,52,12.50
2009,08,02,03,53,12.50
2009,08,02,03,54,12.50
2009,08,02,03,55,12.50
2009,08,02,03,56,12.50
2009,08,02,03,57,12.50
2009,08,02,03,58,12.50
2009,08,02,03,59,12.40
2009,08,02,04,00,12.40
2009,08,02,04,01,12.40
2009,08,02,04,02,12.40
2009,08,02,04,03,12.40
2009,08,02,04,04,12.40
2009,08,02,04,05,12.40
2009,08,02,04,06,12.40
2009,08,02,04,07,12.40
2009,08,02,04,08,12.40
2009,08,02,04,09,12.40
2009,08,02,04,10,12.40
2009,08,02,04,11,12.30
2009,08,02,04,12,12.30
2009,08,02,04,13,12.30
2009,08,02,04,14,12.30
2009,08,02,04,15,12.30
2009,08,02,04,16,12.30
2009,08,02,04,17,12.30
2009,08,02,04,18,12.30
2009,08,02,04,19,12.30
2009,08,02,04,20,12.30
2009,08,02,04,21,12.30
2009,08,02,04,22,12.30
2009,08,02,04,23,12.30
2009,08,02,04,24,12.30
2009,08,02,04,25,12.30
2009,08,02,04,26,12.30
2009,08,02,04,27,12.30
2009,08,02,04,28,12.30
2009,08,02,04,29,12.30
2009,08,02,04,30,12.30
2009,08,02,04,31,12.30
2009,08,02,04,32,12.30
2009,08,02,04,33,12.30
2009,08,02,04,34,12.40
2009,08,02,04,35,12.40
2009,08,02,04,36,12.40
2009,08,02,04,37,12.50
2009,08,02,04,38,12.50
2009,08,02,04,39,12.50
2009,08,02,04,40,12.50
2009,08,02,04,41,12.60
2009,08,02,04,42,12.60
2009,08,02,04,43,12.60
2009,08,02,04,44,12.60
2009,08,02,04,45,12.70
2009,08,02,04,46,12.70
2009,08,02,04,47,12.70
2009,08,02,04,48,12.80
2009,08,02,04,49,12.80
2009,08,02,04,50,12.80
2009,08,02,04,51,12.90
2009,08,02,04,52,13.00
2009,08,02,04,53,13.00
2009,08,02,04,54,13.10
2009,08,02,04,55,13.10
2009,08,02,04,56,13.20
2009,08,02,04,57,13.20
2009,08,02,04,58,13.30
2009,08,02,04,59,13.30
2009,08,02,05,00,13.30
2009,08,02,05,01,13.30
2009,08,02,05,02,13.40
2009,08,02,05,03,13.40
2009,08,02,05,04,13.50
2009,08,02,05,05,13.50
2009,08,02,05,06,13.50
2009,08,02,05,07,13.50
2009,08,02,05,08,13.50
2009,08,02,05,09,13.50
2009,08,02,05,10,13.50
2009,08,02,05,11,13.40
2009,08,02,05,12,13.30
2009,08,02,05,13,13.20
2009,08,02,05,14,13.00
2009,08,02,05,15,12.90
2009,08,02,05,16,12.80
2009,08,02,05,17,12.70
2009,08,02,05,18,12.60
2009,08,02,05,19,12.50
2009,08,02,05,20,12.40
2009,08,02,05,21,12.30
2009,08,02,05,22,12.20
2009,08,02,05,23,12.20
2009,08,02,05,24,12.10
2009,08,02,05,25,12.00
2009,08,02,05,26,11.90
2009,08,02,05,27,11.80
2009,08,02,05,28,11.80
2009,08,02,05,29,11.80
2009,08,02,05,30,11.70
2009,08,02,05,31,11.70
2009,08,02,05,32,11.70
2009,08,02,05,33,11.70
2009,08,02,05,34,11.70
2009,08,02,05,35,11.70
2009,08,02,05,36,11.70
2009,08,02,05,37,11.70
2009,08,02,05,38,11.70
2009,08,02,05,39,11.70
2009,08,02,05,40,11.60
2009,08,02,05,41,11.60
2009,08,02,05,42,11.60
2009,08,02,05,43,11.60
2009,08,02,05,44,11.60
2009,08,02,05,45,11.60
2009,08,02,05,46,11.60
2009,08,02,05,47,11.60
2009,08,02,05,48,11.60
2009,08,02,05,49,11.50
2009,08,02,05,50,11.50
2009,08,02,05,51,11.40
2009,08,02,05,52,11.40
2009,08,02,05,53,11.40
2009,08,02,05,54,11.40
2009,08,02,05,55,11.40
2009,08,02,05,56,11.40
2009,08,02,05,57,11.40
2009,08,02,05,58,11.40
2009,08,02,05,59,11.40
2009,08,02,06,00,11.40
2009,08,02,06,01,11.40
2009,08,02,06,02,11.40
2009,08,02,06,03,11.40
2009,08,02,06,04,11.40
2009,08,02,06,05,11.40
2009,08,02,06,06,11.40
2009,08,02,06,07,11.40
2009,08,02,06,08,11.40
2009,08,02,06,09,11.40
2009,08,02,06,10,11.40
2009,08,02,06,11,11.40
2009,08,02,06,12,11.40
2009,08,02,06,13,11.40
2009,08,02,06,14,11.40
2009,08,02,06,15,11.40
2009,08,02,06,16,11.40
2009,08,02,06,17,11.40
2009,08,02,06,18,11.40
2009,08,02,06,19,11.40
2009,08,02,06,20,11.40
2009,08,02,06,21,11.40
2009,08,02,06,22,11.40
2009,08,02,06,23,11.40
2009,08,02,06,24,11.40
2009,08,02,06,25,11.40
2009,08,02,06,26,11.60
2009,08,02,06,27,11.60
2009,08,02,06,28,11.60
2009,08,02,06,29,11.60
2009,08,02,06,30,11.60
2009,08,02,06,31,11.60
2009,08,02,06,32,11.70
2009,08,02,06,33,11.70
2009,08,02,06,34,11.80
2009,08,02,06,35,11.80
2009,08,02,06,36,11.90
2009,08,02,06,37,11.90
2009,08,02,06,38,11.90
2009,08,02,06,39,12.00
2009,08,02,06,40,12.00
2009,08,02,06,41,12.00
2009,08,02,06,42,12.10
2009,08,02,06,43,12.10
2009,08,02,06,44,12.10
2009,08,02,06,45,12.20
2009,08,02,06,46,12.20
2009,08,02,06,47,12.20
2009,08,02,06,48,12.30
2009,08,02,06,49,12.30
2009,08,02,06,50,12.30
2009,08,02,06,51,12.40
2009,08,02,06,52,12.40
2009,08,02,06,53,12.50
2009,08,02,06,54,12.50
2009,08,02,06,55,12.50
2009,08,02,06,56,12.50
2009,08,02,06,57,12.60
2009,08,02,06,58,12.60
2009,08,02,06,59,12.60
2009,08,02,07,00,12.70
2009,08,02,07,01,12.70
2009,08,02,07,02,12.70
2009,08,02,07,03,12.80
2009,08,02,07,04,12.80
2009,08,02,07,05,12.80
2009,08,02,07,06,12.90
2009,08,02,07,07,12.90
2009,08,02,07,08,12.90
2009,08,02,07,09,13.00
2009,08,02,07,10,13.00
2009,08,02,07,11,13.00
2009,08,02,07,12,13.00
2009,08,02,07,13,13.10
2009,08,02,07,14,13.10
2009,08,02,07,15,13.10
2009,08,02,07,16,13.20
2009,08,02,07,17,13.20
2009,08,02,07,18,13.20
2009,08,02,07,19,13.30
2009,08,02,07,20,13.30
2009,08,02,07,21,13.30
2009,08,02,07,22,13.30
2009,08,02,07,23,13.40
2009,08,02,07,24,13.50
2009,08,02,07,25,13.50
2009,08,02,07,26,13.60
2009,08,02,07,27,13.60
2009,08,02,07,28,13.70
2009,08,02,07,29,13.70
2009,08,02,07,30,13.70
2009,08,02,07,31,13.70
2009,08,02,07,32,13.70
2009,08,02,07,33,13.80
2009,08,02,07,34,13.90
2009,08,02,07,35,14.00
2009,08,02,07,36,14.10
2009,08,02,07,37,14.20
2009,08,02,07,38,14.30
2009,08,02,07,39,14.40
2009,08,02,07,40,14.50
2009,08,02,07,41,14.60
2009,08,02,07,42,14.70
2009,08,02,07,43,14.80
2009,08,02,07,44,14.80
2009,08,02,07,45,14.90
2009,08,02,07,46,15.00
2009,08,02,07,47,15.00
2009,08,02,07,48,15.10
2009,08,02,07,49,15.20
2009,08,02,07,50,15.20
2009,08,02,07,51,15.30
2009,08,02,07,52,15.40
2009,08,02,07,53,15.50
2009,08,02,07,54,15.50
2009,08,02,07,55,15.60
2009,08,02,07,56,15.70
2009,08,02,07,57,15.70
2009,08,02,07,58,15.80
2009,08,02,07,59,15.90
2009,08,02,08,00,15.90
2009,08,02,08,01,16.10
2009,08,02,08,02,16.20
2009,08,02,08,03,16.30
2009,08,02,08,04,16.40
2009,08,02,08,05,16.40
2009,08,02,08,06,16.50
2009,08,02,08,07,16.60
2009,08,02,08,08,16.70
2009,08,02,08,09,16.70
2009,08,02,08,10,16.70
2009,08,02,08,11,16.80
2009,08,02,08,12,16.90
2009,08,02,08,13,17.00
2009,08,02,08,14,17.00
2009,08,02,08,15,17.10
2009,08,02,08,16,17.20
2009,08,02,08,17,17.30
2009,08,02,08,18,17.40
2009,08,02,08,19,17.50
2009,08,02,08,20,17.70
2009,08,02,08,21,17.70
2009,08,02,08,22,17.80
2009,08,02,08,23,17.90
2009,08,02,08,24,18.00
2009,08,02,08,25,18.20
2009,08,02,08,26,18.30
2009,08,02,08,27,18.40
2009,08,02,08,28,18.50
2009,08,02,08,29,18.70
2009,08,02,08,30,18.80
2009,08,02,08,31,19.00
2009,08,02,08,32,19.10
2009,08,02,08,33,19.10
2009,08,02,08,34,19.20
2009,08,02,08,35,19.30
2009,08,02,08,36,19.30
2009,08,02,08,37,19.30
2009,08,02,08,38,19.10
2009,08,02,08,39,19.10
2009,08,02,08,40,19.10
2009,08,02,08,41,19.10
2009,08,02,08,42,19.20
2009,08,02,08,43,19.30
2009,08,02,08,44,19.40
2009,08,02,08,45,19.40
2009,08,02,08,46,19.50
2009,08,02,08,47,19.50
2009,08,02,08,48,19.50
2009,08,02,08,49,19.50
2009,08,02,08,50,19.40
2009,08,02,08,51,19.40
2009,08,02,08,52,19.30
2009,08,02,08,53,19.20
2009,08,02,08,54,19.10
2009,08,02,08,55,19.00
2009,08,02,08,56,18.90
2009,08,02,08,57,18.80
2009,08,02,08,58,18.70
2009,08,02,08,59,18.70
2009,08,02,09,00,18.70
2009,08,02,09,01,18.70
2009,08,02,09,02,18.80
2009,08,02,09,03,18.90
2009,08,02,09,04,18.90
2009,08,02,09,05,19.00
2009,08,02,09,06,19.10
2009,08,02,09,07,19.10
2009,08,02,09,08,19.20
2009,08,02,09,09,19.30
2009,08,02,09,10,19.40
2009,08,02,09,11,19.50
2009,08,02,09,12,19.60
2009,08,02,09,13,19.70
2009,08,02,09,14,19.80
2009,08,02,09,15,19.90
2009,08,02,09,16,19.90
2009,08,02,09,17,19.90
2009,08,02,09,18,19.90
2009,08,02,09,19,20.10
2009,08,02,09,20,20.10
2009,08,02,09,21,20.10
2009,08,02,09,22,20.10
2009,08,02,09,23,20.10
2009,08,02,09,24,20.20
2009,08,02,09,25,20.20
2009,08,02,09,26,20.20
2009,08,02,09,27,20.10
2009,08,02,09,28,20.00
2009,08,02,09,29,19.90
2009,08,02,09,30,19.90
2009,08,02,09,31,19.80
2009,08,02,09,32,19.60
2009,08,02,09,33,19.60
2009,08,02,09,34,19.50
2009,08,02,09,35,19.40
2009,08,02,09,36,19.40
2009,08,02,09,37,19.30
2009,08,02,09,38,19.40
2009,08,02,09,39,19.50
2009,08,02,09,40,19.70
2009,08,02,09,41,19.90
2009,08,02,09,42,20.00
2009,08,02,09,43,20.20
2009,08,02,09,44,20.30
2009,08,02,09,45,20.50
2009,08,02,09,46,20.60
2009,08,02,09,47,20.60
2009,08,02,09,48,20.80
2009,08,02,09,49,20.80
2009,08,02,09,50,20.80
2009,08,02,09,51,20.70
2009,08,02,09,52,20.70
2009,08,02,09,53,20.60
2009,08,02,09,54,20.60
2009,08,02,09,55,20.70
2009,08,02,09,56,20.80
2009,08,02,09,57,20.90
2009,08,02,09,58,20.90
2009,08,02,09,59,21.00
2009,08,02,10,00,21.20
2009,08,02,10,01,21.30
2009,08,02,10,02,21.30
2009,08,02,10,03,21.30
2009,08,02,10,04,21.30
2009,08,02,10,05,21.30
2009,08,02,10,06,21.20
2009,08,02,10,07,21.20
2009,08,02,10,08,21.30
2009,08,02,10,09,21.30
2009,08,02,10,10,21.30
2009,08,02,10,11,21.30
2009,08,02,10,12,21.40
2009,08,02,10,13,21.50
2009,08,02,10,14,21.60
2009,08,02,10,15,21.60
2009,08,02,10,16,21.70
2009,08,02,10,17,21.70
2009,08,02,10,18,21.70
2009,08,02,10,19,21.70
2009,08,02,10,20,21.70
2009,08,02,10,21,21.60
2009,08,02,10,22,21.60
2009,08,02,10,23,21.60
2009,08,02,10,24,21.60
2009,08,02,10,25,21.60
2009,08,02,10,26,21.60
2009,08,02,10,27,21.60
2009,08,02,10,28,21.70
2009,08,02,10,29,21.70
2009,08,02,10,30,21.70
2009,08,02,10,31,21.70
2009,08,02,10,32,21.60
2009,08,02,10,33,21.60
2009,08,02,10,34,21.60
2009,08,02,10,35,21.60
2009,08,02,10,36,21.70
2009,08,02,10,37,21.80
2009,08,02,10,38,22.00
2009,08,02,10,39,22.10
2009,08,02,10,40,22.20
2009,08,02,10,41,22.30
2009,08,02,10,42,22.40
2009,08,02,10,43,22.40
2009,08,02,10,44,22.40
2009,08,02,10,45,22.50
2009,08,02,10,46,22.40
2009,08,02,10,47,22.40
2009,08,02,10,48,22.30
2009,08,02,10,49,22.30
2009,08,02,10,50,22.20
2009,08,02,10,51,22.30
2009,08,02,10,52,22.30
2009,08,02,10,53,22.30
2009,08,02,10,54,22.30
2009,08,02,10,55,22.20
2009,08,02,10,56,22.20
2009,08,02,10,57,22.30
2009,08,02,10,58,22.30
2009,08,02,10,59,22.20
2009,08,02,11,00,22.20
2009,08,02,11,01,22.10
2009,08,02,11,02,22.10
2009,08,02,11,03,22.20
2009,08,02,11,04,22.40
2009,08,02,11,05,22.50
2009,08,02,11,06,22.60
2009,08,02,11,07,22.60
2009,08,02,11,08,22.50
2009,08,02,11,09,22.50
2009,08,02,11,10,22.50
2009,08,02,11,11,22.50
2009,08,02,11,12,22.40
2009,08,02,11,13,22.50
2009,08,02,11,14,22.50
2009,08,02,11,15,22.40
2009,08,02,11,16,22.40
2009,08,02,11,17,22.40
2009,08,02,11,18,22.40
2009,08,02,11,19,22.40
2009,08,02,11,20,22.60
2009,08,02,11,21,22.70
2009,08,02,11,22,22.70
2009,08,02,11,23,22.70
2009,08,02,11,24,22.70
2009,08,02,11,25,22.70
2009,08,02,11,26,22.60
2009,08,02,11,27,22.70
2009,08,02,11,28,22.80
2009,08,02,11,29,22.80
2009,08,02,11,30,22.80
2009,08,02,11,31,22.70
2009,08,02,11,32,22.60
2009,08,02,11,33,22.40
2009,08,02,11,34,22.30
2009,08,02,11,35,22.40
2009,08,02,11,36,22.40
2009,08,02,11,37,22.40
2009,08,02,11,38,22.40
2009,08,02,11,39,22.40
2009,08,02,11,40,22.60
2009,08,02,11,41,22.60
2009,08,02,11,42,22.60
2009,08,02,11,43,22.50
2009,08,02,11,44,22.50
2009,08,02,11,45,22.60
2009,08,02,11,46,22.70
2009,08,02,11,47,22.90
2009,08,02,11,48,23.10
2009,08,02,11,49,23.30
2009,08,02,11,50,23.30
2009,08,02,11,51,23.40
2009,08,02,11,52,23.60
2009,08,02,11,53,23.50
2009,08,02,11,54,23.30
2009,08,02,11,55,23.20
2009,08,02,11,56,23.00
2009,08,02,11,57,23.10
2009,08,02,11,58,23.20
2009,08,02,11,59,23.20
2009,08,02,12,00,23.20
2009,08,02,12,01,23.10
2009,08,02,12,02,23.00
2009,08,02,12,03,23.00
2009,08,02,12,04,23.10
2009,08,02,12,05,23.00
2009,08,02,12,06,22.90
2009,08,02,12,07,22.80
2009,08,02,12,08,22.80
2009,08,02,12,09,22.90
2009,08,02,12,10,23.00
2009,08,02,12,11,23.10
2009,08,02,12,12,23.10
2009,08,02,12,13,23.10
2009,08,02,12,14,23.10
2009,08,02,12,15,23.10
2009,08,02,12,16,23.10
2009,08,02,12,17,22.90
2009,08,02,12,18,22.90
2009,08,02,12,19,22.90
2009,08,02,12,20,22.90
2009,08,02,12,21,22.80
2009,08,02,12,22,22.70
2009,08,02,12,23,22.70
2009,08,02,12,24,22.70
2009,08,02,12,25,22.70
2009,08,02,12,26,22.80
2009,08,02,12,27,22.80
2009,08,02,12,28,22.70
2009,08,02,12,29,22.60
2009,08,02,12,30,22.60
2009,08,02,12,31,22.70
2009,08,02,12,32,22.70
2009,08,02,12,33,22.80
2009,08,02,12,34,22.80
2009,08,02,12,35,22.70
2009,08,02,12,36,22.70
2009,08,02,12,37,22.80
2009,08,02,12,38,22.80
2009,08,02,12,39,22.90
2009,08,02,12,40,22.90
2009,08,02,12,41,22.90
2009,08,02,12,42,23.00
2009,08,02,12,43,23.20
2009,08,02,12,44,23.20
2009,08,02,12,45,23.30
2009,08,02,12,46,23.40
2009,08,02,12,47,23.50
2009,08,02,12,48,23.40
2009,08,02,12,49,23.40
2009,08,02,12,50,23.30
2009,08,02,12,51,23.20
2009,08,02,12,52,23.20
2009,08,02,12,53,23.10
2009,08,02,12,54,23.10
2009,08,02,12,55,23.10
2009,08,02,12,56,23.30
2009,08,02,12,57,23.30
2009,08,02,12,58,23.30
2009,08,02,12,59,23.30
2009,08,02,13,00,23.40
2009,08,02,13,01,23.50
2009,08,02,13,02,23.60
2009,08,02,13,03,23.70
2009,08,02,13,04,23.70
2009,08,02,13,05,23.70
2009,08,02,13,06,23.70
2009,08,02,13,07,23.70
2009,08,02,13,08,23.70
2009,08,02,13,09,23.80
2009,08,02,13,10,23.80
2009,08,02,13,11,23.80
2009,08,02,13,12,23.90
2009,08,02,13,13,23.90
2009,08,02,13,14,23.90
2009,08,02,13,15,23.90
2009,08,02,13,16,24.00
2009,08,02,13,17,24.10
2009,08,02,13,18,24.20
2009,08,02,13,19,24.20
2009,08,02,13,20,24.20
2009,08,02,13,21,24.20
2009,08,02,13,22,24.10
2009,08,02,13,23,24.10
2009,08,02,13,24,24.10
2009,08,02,13,25,24.10
2009,08,02,13,26,24.20
2009,08,02,13,27,24.30
2009,08,02,13,28,24.40
2009,08,02,13,29,24.50
2009,08,02,13,30,24.50
2009,08,02,13,31,24.60
2009,08,02,13,32,24.60
2009,08,02,13,33,24.50
2009,08,02,13,34,24.60
2009,08,02,13,35,24.70
2009,08,02,13,36,24.80
2009,08,02,13,37,24.90
2009,08,02,13,38,25.20
2009,08,02,13,39,25.20
2009,08,02,13,40,25.20
2009,08,02,13,41,25.20
2009,08,02,13,42,25.20
2009,08,02,13,43,25.30
2009,08,02,13,44,25.40
2009,08,02,13,45,25.40
2009,08,02,13,46,25.40
2009,08,02,13,47,25.40
2009,08,02,13,48,25.30
2009,08,02,13,49,25.30
2009,08,02,13,50,25.40
2009,08,02,13,51,25.40
2009,08,02,13,52,25.40
2009,08,02,13,53,25.40
2009,08,02,13,54,25.40
2009,08,02,13,55,25.40
2009,08,02,13,56,25.40
2009,08,02,13,57,25.40
2009,08,02,13,58,25.40
2009,08,02,13,59,25.40
2009,08,02,14,00,25.40
2009,08,02,14,01,25.40
2009,08,02,14,02,25.40
2009,08,02,14,03,25.30
2009,08,02,14,04,25.30
2009,08,02,14,05,25.20
2009,08,02,14,06,25.20
2009,08,02,14,07,25.10
2009,08,02,14,08,25.10
2009,08,02,14,09,25.20
2009,08,02,14,10,25.20
2009,08,02,14,11,25.10
2009,08,02,14,12,25.10
2009,08,02,14,13,25.10
2009,08,02,14,14,25.20
2009,08,02,14,15,25.20
2009,08,02,14,16,25.20
2009,08,02,14,17,25.20
2009,08,02,14,18,25.20
2009,08,02,14,19,25.20
2009,08,02,14,20,25.30
2009,08,02,14,21,25.40
2009,08,02,14,22,25.40
2009,08,02,14,23,25.30
2009,08,02,14,24,25.40
2009,08,02,14,25,25.40
2009,08,02,14,26,25.60
2009,08,02,14,27,25.80
2009,08,02,14,28,25.80
2009,08,02,14,29,26.00
2009,08,02,14,30,26.10
2009,08,02,14,31,26.20
2009,08,02,14,32,26.30
2009,08,02,14,33,26.40
2009,08,02,14,34,26.40
2009,08,02,14,35,26.30
2009,08,02,14,36,26.30
2009,08,02,14,37,26.40
2009,08,02,14,38,26.50
2009,08,02,14,39,26.60
2009,08,02,14,40,26.70
2009,08,02,14,41,26.90
2009,08,02,14,42,26.90
2009,08,02,14,43,26.90
2009,08,02,14,44,26.90
2009,08,02,14,45,26.80
2009,08,02,14,46,26.70
2009,08,02,14,47,26.80
2009,08,02,14,48,26.80
2009,08,02,14,49,26.80
2009,08,02,14,50,27.00
2009,08,02,14,51,27.20
2009,08,02,14,52,27.30
2009,08,02,14,53,27.50
2009,08,02,14,54,27.60
2009,08,02,14,55,27.70
2009,08,02,14,56,27.70
2009,08,02,14,57,27.70
2009,08,02,14,58,27.70
2009,08,02,14,59,27.60
2009,08,02,15,00,27.60
2009,08,02,15,01,27.60
2009,08,02,15,02,27.60
2009,08,02,15,03,27.60
2009,08,02,15,04,27.60
2009,08,02,15,05,27.60
2009,08,02,15,06,27.80
2009,08,02,15,07,28.10
2009,08,02,15,08,28.20
2009,08,02,15,09,28.30
2009,08,02,15,10,28.30
2009,08,02,15,11,28.50
2009,08,02,15,12,28.60
2009,08,02,15,13,28.70
2009,08,02,15,14,28.80
2009,08,02,15,15,28.90
2009,08,02,15,16,29.00
2009,08,02,15,17,29.00
2009,08,02,15,18,28.90
2009,08,02,15,19,28.90
2009,08,02,15,20,28.80
2009,08,02,15,21,28.70
2009,08,02,15,22,28.70
2009,08,02,15,23,28.60
2009,08,02,15,24,28.50
2009,08,02,15,25,28.50
2009,08,02,15,26,28.60
2009,08,02,15,27,28.70
2009,08,02,15,28,28.70
2009,08,02,15,29,28.60
2009,08,02,15,30,28.60
2009,08,02,15,31,28.60
2009,08,02,15,32,28.60
2009,08,02,15,33,28.70
2009,08,02,15,34,28.60
2009,08,02,15,35,28.50
2009,08,02,15,36,28.30
2009,08,02,15,37,28.10
2009,08,02,15,38,27.90
2009,08,02,15,39,27.90
2009,08,02,15,40,28.00
2009,08,02,15,41,28.10
2009,08,02,15,42,28.10
2009,08,02,15,43,28.10
2009,08,02,15,44,28.10
2009,08,02,15,45,28.20
2009,08,02,15,46,28.20
2009,08,02,15,47,28.30
2009,08,02,15,48,28.30
2009,08,02,15,49,28.30
2009,08,02,15,50,28.40
2009,08,02,15,51,28.40
2009,08,02,15,52,28.20
2009,08,02,15,53,28.00
2009,08,02,15,54,27.80
2009,08,02,15,55,27.70
2009,08,02,15,56,27.60
2009,08,02,15,57,27.50
2009,08,02,15,58,27.40
2009,08,02,15,59,27.40
2009,08,02,16,00,27.40
2009,08,02,16,01,27.40
2009,08,02,16,02,27.40
2009,08,02,16,03,27.30
2009,08,02,16,04,27.20
2009,08,02,16,05,27.10
2009,08,02,16,06,27.10
2009,08,02,16,07,27.20
2009,08,02,16,08,27.10
2009,08,02,16,09,27.20
2009,08,02,16,10,27.30
2009,08,02,16,11,27.40
2009,08,02,16,12,27.60
2009,08,02,16,13,27.70
2009,08,02,16,14,27.90
2009,08,02,16,15,27.90
2009,08,02,16,16,27.90
2009,08,02,16,17,27.90
2009,08,02,16,18,28.10
2009,08,02,16,19,28.20
2009,08,02,16,20,28.20
2009,08,02,16,21,28.10
2009,08,02,16,22,28.00
2009,08,02,16,23,27.80
2009,08,02,16,24,27.70
2009,08,02,16,25,27.70
2009,08,02,16,26,27.60
2009,08,02,16,27,27.60
2009,08,02,16,28,27.60
2009,08,02,16,29,27.80
2009,08,02,16,30,27.90
2009,08,02,16,31,28.00
2009,08,02,16,32,28.00
2009,08,02,16,33,27.90
2009,08,02,16,34,28.00
2009,08,02,16,35,27.90
2009,08,02,16,36,27.70
2009,08,02,16,37,27.40
2009,08,02,16,38,27.20
2009,08,02,16,39,27.10
2009,08,02,16,40,27.10
2009,08,02,16,41,27.20
2009,08,02,16,42,27.20
2009,08,02,16,43,27.30
2009,08,02,16,44,27.30
2009,08,02,16,45,27.30
2009,08,02,16,46,27.30
2009,08,02,16,47,27.30
2009,08,02,16,48,27.30
2009,08,02,16,49,27.40
2009,08,02,16,50,27.50
2009,08,02,16,51,27.40
2009,08,02,16,52,27.30
2009,08,02,16,53,27.30
2009,08,02,16,54,27.30
2009,08,02,16,55,27.30
2009,08,02,16,56,27.40
2009,08,02,16,57,27.50
2009,08,02,16,58,27.60
2009,08,02,16,59,27.60
2009,08,02,17,00,27.50
2009,08,02,17,01,27.50
2009,08,02,17,02,27.60
2009,08,02,17,03,27.70
2009,08,02,17,04,27.80
2009,08,02,17,05,27.80
2009,08,02,17,06,27.70
2009,08,02,17,07,27.80
2009,08,02,17,08,27.90
2009,08,02,17,09,27.90
2009,08,02,17,10,27.80
2009,08,02,17,11,27.80
2009,08,02,17,12,27.70
2009,08,02,17,13,27.60
2009,08,02,17,14,27.70
2009,08,02,17,15,27.60
2009,08,02,17,16,27.70
2009,08,02,17,17,27.70
2009,08,02,17,18,27.70
2009,08,02,17,19,27.80